Regional Weather Roundup
Issued by NWS

Current Version | Previous Version | Text Only | Print | Product List | Glossary On
Versions: 1 2 3 4 5 6 7 8 9 10 11 12 13 14 15 16 17 18 19 20 21 22 23 24 25 26 27 28 29 30 31 32 33 34 35 36 37 38 39 40 41 42 43 44 45 46 47 48 49 50
000
ASUS45 KCYS 240610
RWRWY

WYOMING REGIONAL WEATHER ROUNDUP
NATIONAL WEATHER SERVICE CHEYENNE WY
1100 PM MST SUN NOV 23 2014

NOTE:  "FAIR" INDICATES FEW OR NO CLOUDS BELOW 12,000 FEET
WITH NO SIGNIFICANT WEATHER AND/OR OBSTRUCTIONS TO VISIBILITY.

WYZ001-240700-
YELLOWSTONE NATIONAL PARK

CITY           SKY/WX    TMP DP  RH WIND       PRES   REMARKS
LK YELLOWSTONE   N/A     20  16  84 VRB7      29.91F WCI  11
6HR MIN TEMP:  20; 6HR MAX TEMP:  21; 6HR PCP:  0.04;

W YELLOWSTONE  NOT AVBL

$$
WYZ002>013-054>058-071-098>099-240700-
NORTHERN WYOMING

CITY           SKY/WX    TMP DP  RH WIND       PRES   REMARKS
JACKSON        CLOUDY    25  25 100 S14       29.98F VSB 3/4 WCI  13
CODY           MOCLDY    36  18  48 W6G20     29.84S WCI  31
GREYBULL       CLOUDY    27  19  72 SE6       29.88F WCI  20
6HR MIN TEMP:  23; 6HR MAX TEMP:  34;

WORLAND        CLOUDY    25  18  74 SE6       29.88S WCI  18
6HR MIN TEMP:  21; 6HR MAX TEMP:  28;

SHERIDAN       CLOUDY    34  17  50 NW5       29.83R WCI  30
6HR MIN TEMP:  30; 6HR MAX TEMP:  37;

BUFFALO          N/A     29  12  49 N8        29.80S WCI  21
6HR MIN TEMP:  28; 6HR MAX TEMP:  34;

GILLETTE       NOT AVBL
HULETT           N/A    N/A N/A N/A MISG        N/A
NEWCASTLE      FAIR      27  19  74 NW15      29.78S WCI  15

$$
WYZ014>020-022>026-101>103-240700-
CENTRAL WYOMING

CITY           SKY/WX    TMP DP  RH WIND       PRES   REMARKS
BIG PINEY      CLOUDY    22  12  65 CALM      30.01F
6HR MIN TEMP:  19; 6HR MAX TEMP:  38;

PINEDALE       CLOUDY    12  10  92 CALM      30.01F
DUBOIS         MOCLDY    23  14  68 N16G23    29.87F WCI  10
LANDER         NOT AVBL
RIVERTON       PTCLDY    28  14  55 NW15      29.89R WCI  16
6HR MIN TEMP:  28; 6HR MAX TEMP:  31;

CASPER         PTCLDY    25  13  60 SW14      29.86F WCI  13
6HR MIN TEMP:  20; 6HR MAX TEMP:  26;

DOUGLAS        CLEAR    N/A N/A N/A NW10      29.84F

$$
WYZ021-027>030-104>119-240700-
SOUTHERN WYOMING

CITY           SKY/WX    TMP DP  RH WIND       PRES   REMARKS
EVANSTON       LGT SNOW  22  19  89 SW17      30.12R FOG     WCI   8
6HR MIN TEMP:  21; 6HR MAX TEMP:  23; 6HR PCP: TRACE;

FORT BRIDGER   CLOUDY    25  20  83 W20G33    30.10S WCI  11
ROCK SPRINGS   PTCLDY    22  15  75 W20G33    30.02F WCI   7
6HR MIN TEMP:  21; 6HR MAX TEMP:  25;

DIXON          CLOUDY    22  15  72 SW7       30.07R WCI  14
RAWLINS        PTCLDY    21  12  68 W26G36    29.94F WCI   4
6HR MIN TEMP:  18; 6HR MAX TEMP:  24;

SARATOGA       FAIR      18  12  79 CALM      29.95S
LARAMIE        CLEAR     15   5  64 SW10      29.86S WCI   2
6HR MIN TEMP:  14; 6HR MAX TEMP:  20;

CHEYENNE       CLEAR     25   8  48 NW12G25   29.82F WCI  14
6HR MIN TEMP:  24; 6HR MAX TEMP:  27;

TORRINGTON     CLEAR     24  18  77 NW8       29.83R WCI  15
6HR MIN TEMP:  24; 6HR MAX TEMP:  33;

PINE BLUFFS    FAIR      19  12  73 W10       29.84S WCI   8

$$



USA.gov is the U.S. government's official web portal to all federal, state and local government web resources and services.